| time (UTC) | temp F | wind direction | speed MPH | gust MPH | rain 1hr in | rain 24hr in | rain mn in | humidity % | barometer mb |
| 20260510215752 | 70 | 0 | 3.0 | 7.0 | 0.00 | 0.24 | 0.22 | 44 | 1022.7 |
| 20260510215252 | 69 | 0 | 3.0 | 7.0 | 0.00 | 0.24 | 0.22 | 39 | 1022.8 |
| 20260510214751 | 69 | 0 | 3.0 | 8.0 | 0.00 | 0.24 | 0.22 | 41 | 1022.9 |
| 20260510214522 | 69 | 0 | 4.0 | 8.0 | 0.00 | 0.24 | 0.22 | 41 | 1022.9 |
| 20260510213750 | 69 | 0 | 3.0 | 8.0 | 0.00 | 0.24 | 0.22 | 41 | 1023.1 |
| 20260510213251 | 69 | 0 | 3.0 | 9.0 | 0.00 | 0.24 | 0.22 | 45 | 1023.1 |
| 20260510213020 | 69 | 0 | 5.0 | 9.0 | 0.00 | 0.24 | 0.22 | 42 | 1023.2 |
| 20260510212249 | 69 | 0 | 5.0 | 9.0 | 0.00 | 0.24 | 0.22 | 43 | 1023.1 |
| 20260510212021 | 69 | 0 | 3.0 | 9.0 | 0.00 | 0.24 | 0.22 | 42 | 1023.1 |
| 20260510211250 | 69 | 0 | 3.0 | 9.0 | 0.00 | 0.24 | 0.22 | 43 | 1023.2 |
| 20260510210751 | 69 | 0 | 4.0 | 9.0 | 0.00 | 0.24 | 0.22 | 42 | 1023.3 |
| 20260510210248 | 69 | 0 | 5.0 | 10.0 | 0.00 | 0.24 | 0.22 | 43 | 1023.3 |
| 20260510205749 | 69 | 0 | 4.0 | 10.0 | 0.00 | 0.24 | 0.22 | 43 | 1023.4 |
| 20260510205247 | 69 | 0 | 2.0 | 7.0 | 0.00 | 0.24 | 0.22 | 43 | 1023.4 |
| 20260510205019 | 68 | 0 | 3.0 | 7.0 | 0.00 | 0.24 | 0.22 | 45 | 1023.5 |
| 20260510204249 | 68 | 0 | 5.0 | 9.0 | 0.00 | 0.24 | 0.22 | 43 | 1023.5 |
| 20260510203748 | 68 | 0 | 5.0 | 9.0 | 0.00 | 0.24 | 0.22 | 52 | 1023.5 |
| 20260510203248 | 68 | 0 | 5.0 | 9.0 | 0.00 | 0.24 | 0.22 | 43 | 1023.4 |
| 20260510202749 | 68 | 0 | 4.0 | 9.0 | 0.00 | 0.24 | 0.22 | 45 | 1023.5 |
| 20260510202248 | 68 | 0 | 3.0 | 6.0 | 0.00 | 0.24 | 0.22 | 45 | 1023.5 |
| 20260510201747 | 68 | 0 | 4.0 | 9.0 | 0.00 | 0.24 | 0.22 | 46 | 1023.5 |
| 20260510201246 | 67 | 0 | 4.0 | 9.0 | 0.00 | 0.24 | 0.22 | 46 | 1023.6 |
| 20260510200745 | 67 | 109 | 3.0 | 10.0 | 0.00 | 0.24 | 0.22 | 46 | 1023.6 |
| 20260510200517 | 67 | 143 | 3.0 | 10.0 | 0.00 | 0.24 | 0.22 | 45 | 1023.6 |
| 20260510200016 | 67 | 0 | 6.0 | 10.0 | 0.00 | 0.24 | 0.22 | 48 | 1023.6 |
| 20260510195245 | 67 | 0 | 5.0 | 10.0 | 0.00 | 0.24 | 0.22 | 47 | 1023.6 |
| 20260510194745 | 67 | 0 | 3.0 | 7.0 | 0.00 | 0.24 | 0.22 | 51 | 1023.6 |
| 20260510194247 | 66 | 0 | 3.0 | 7.0 | 0.00 | 0.24 | 0.22 | 47 | 1023.8 |
| 20260510193746 | 67 | 0 | 4.0 | 9.0 | 0.00 | 0.24 | 0.22 | 47 | 1023.8 |
| 20260510193247 | 66 | 0 | 3.0 | 9.0 | 0.00 | 0.24 | 0.22 | 46 | 1023.8 |
| 20260510193016 | 66 | 0 | 3.0 | 8.0 | 0.00 | 0.24 | 0.22 | 48 | 1023.9 |
| 20260510192248 | 66 | 0 | 2.0 | 7.0 | 0.00 | 0.24 | 0.22 | 47 | 1024.0 |
| 20260510192243 | 66 | 0 | 4.0 | 8.0 | 0.00 | 0.24 | 0.22 | 45 | 1024.0 |
| 20260510191514 | 66 | 0 | 2.0 | 7.0 | 0.00 | 0.24 | 0.22 | 47 | 1024.0 |
| 20260510190745 | 66 | 0 | 4.0 | 8.0 | 0.00 | 0.24 | 0.22 | 49 | 1024.1 |
| 20260510190244 | 66 | 0 | 4.0 | 8.0 | 0.00 | 0.24 | 0.22 | 47 | 1024.1 |
| 20260510185745 | 66 | 0 | 3.0 | 8.0 | 0.00 | 0.24 | 0.22 | 50 | 1024.2 |
| 20260510185243 | 66 | 0 | 3.0 | 6.0 | 0.00 | 0.24 | 0.22 | 53 | 1024.3 |
| 20260510185016 | 65 | 0 | 3.0 | 7.0 | 0.00 | 0.24 | 0.22 | 51 | 1024.3 |
| 20260510184244 | 66 | 0 | 3.0 | 8.0 | 0.00 | 0.24 | 0.22 | 51 | 1024.6 |
| 20260510183741 | 66 | 0 | 3.0 | 8.0 | 0.00 | 0.24 | 0.22 | 47 | 1024.6 |
| 20260510183242 | 65 | 0 | 2.0 | 7.0 | 0.00 | 0.24 | 0.22 | 47 | 1024.6 |
| 20260510182742 | 65 | 0 | 2.0 | 6.0 | 0.00 | 0.24 | 0.22 | 52 | 1024.6 |
| 20260510182241 | 65 | 0 | 3.0 | 7.0 | 0.00 | 0.24 | 0.22 | 47 | 1024.6 |
| 20260510181743 | 64 | 0 | 3.0 | 7.0 | 0.00 | 0.24 | 0.22 | 48 | 1024.7 |
| 20260510181242 | 64 | 0 | 2.0 | 7.0 | 0.00 | 0.24 | 0.22 | 48 | 1024.6 |
| 20260510180742 | 64 | 0 | 2.0 | 7.0 | 0.00 | 0.24 | 0.22 | 53 | 1024.7 |
| 20260510180514 | 64 | 0 | 3.0 | 8.0 | 0.00 | 0.24 | 0.22 | 51 | 1024.8 |
| 20260510175742 | 64 | 0 | 3.0 | 8.0 | 0.00 | 0.24 | 0.22 | 49 | 1024.7 |
| 20260510175241 | 63 | 0 | 2.0 | 7.0 | 0.00 | 0.24 | 0.22 | 51 | 1024.8 |
| 20260510175010 | 63 | 0 | 3.0 | 8.0 | 0.00 | 0.24 | 0.22 | 49 | 1024.8 |
| 20260510174240 | 63 | 0 | 3.0 | 8.0 | 0.00 | 0.24 | 0.22 | 53 | 1024.9 |
| 20260510173739 | 63 | 0 | 3.0 | 8.0 | 0.00 | 0.24 | 0.22 | 52 | 1024.9 |
| 20260510173511 | 63 | 0 | 3.0 | 8.0 | 0.00 | 0.24 | 0.22 | 54 | 1025.0 |
| 20260510172739 | 62 | 0 | 4.0 | 10.0 | 0.00 | 0.24 | 0.22 | 52 | 1025.0 |
| 20260510172238 | 63 | 0 | 4.0 | 10.0 | 0.00 | 0.24 | 0.22 | 53 | 1025.0 |
| 20260510171739 | 62 | 0 | 3.0 | 6.0 | 0.00 | 0.24 | 0.22 | 53 | 1025.1 |
| 20260510171237 | 62 | 0 | 2.0 | 6.0 | 0.00 | 0.24 | 0.22 | 55 | 1025.1 |
| 20260510170738 | 62 | 0 | 1.0 | 5.0 | 0.00 | 0.24 | 0.22 | 56 | 1025.1 |
| 20260510170238 | 61 | 0 | 0.0 | 3.0 | 0.00 | 0.24 | 0.22 | 59 | 1025.1 |
| 20260510165735 | 61 | 0 | 2.0 | 6.0 | 0.00 | 0.24 | 0.22 | 54 | 1025.1 |
| 20260510165237 | 61 | 0 | 3.0 | 6.0 | 0.00 | 0.24 | 0.22 | 53 | 1025.1 |
| 20260510164736 | 61 | 0 | 3.0 | 7.0 | 0.00 | 0.24 | 0.22 | 55 | 1025.1 |
| 20260510164506 | 61 | 0 | 2.0 | 7.0 | 0.00 | 0.24 | 0.22 | 56 | 1025.3 |
| 20260510163737 | 60 | 0 | 1.0 | 6.0 | 0.00 | 0.24 | 0.22 | 58 | 1025.3 |
| 20260510163508 | 60 | 0 | 3.0 | 8.0 | 0.00 | 0.24 | 0.22 | 62 | 1025.3 |
| 20260510162736 | 60 | 0 | 3.0 | 8.0 | 0.00 | 0.24 | 0.22 | 60 | 1025.3 |
| 20260510162236 | 59 | 0 | 3.0 | 8.0 | 0.00 | 0.24 | 0.22 | 62 | 1025.3 |
| 20260510161736 | 59 | 0 | 3.0 | 6.0 | 0.00 | 0.24 | 0.22 | 60 | 1025.3 |
| 20260510161232 | 59 | 0 | 4.0 | 9.0 | 0.00 | 0.24 | 0.22 | 63 | 1025.4 |
| 20260510160730 | 59 | 0 | 4.0 | 9.0 | 0.00 | 0.24 | 0.22 | 64 | 1025.3 |
| 20260510160229 | 59 | 0 | 3.0 | 7.0 | 0.00 | 0.24 | 0.22 | 67 | 1025.3 |
| 20260510155731 | 58 | 0 | 2.0 | 7.0 | 0.00 | 0.24 | 0.22 | 69 | 1025.3 |
| 20260510155231 | 58 | 0 | 2.0 | 5.0 | 0.00 | 0.24 | 0.22 | 68 | 1025.3 |
| 20260510154959 | 57 | 0 | 2.0 | 4.0 | 0.00 | 0.24 | 0.22 | 71 | 1025.3 |
| 20260510154228 | 56 | 0 | 2.0 | 6.0 | 0.00 | 0.24 | 0.22 | 72 | 1025.1 |
| 20260510153728 | 56 | 0 | 2.0 | 6.0 | 0.00 | 0.24 | 0.22 | 77 | 1025.3 |
| 20260510153227 | 55 | 0 | 2.0 | 4.0 | 0.00 | 0.24 | 0.22 | 76 | 1025.3 |
| 20260510152727 | 55 | 0 | 2.0 | 6.0 | 0.00 | 0.24 | 0.22 | 78 | 1025.1 |
| 20260510152227 | 54 | 0 | 3.0 | 6.0 | 0.00 | 0.24 | 0.22 | 77 | 1025.3 |
| 20260510151727 | 54 | 0 | 3.0 | 7.0 | 0.00 | 0.24 | 0.22 | 78 | 1025.3 |
| 20260510151459 | 54 | 0 | 3.0 | 7.0 | 0.00 | 0.24 | 0.22 | 78 | 1025.3 |
| 20260510150728 | 53 | 0 | 3.0 | 6.0 | 0.00 | 0.24 | 0.22 | 79 | 1025.4 |
| 20260510150227 | 53 | 0 | 3.0 | 6.0 | 0.00 | 0.24 | 0.22 | 80 | 1025.3 |
| 20260510145728 | 52 | 0 | 3.0 | 6.0 | 0.00 | 0.24 | 0.22 | 81 | 1025.3 |
| 20260510145233 | 51 | 0 | 2.0 | 6.0 | 0.00 | 0.24 | 0.22 | 84 | 1025.4 |
| 20260510145228 | 52 | 0 | 3.0 | 6.0 | 0.00 | 0.24 | 0.22 | 83 | 1025.3 |
| 20260510144225 | 51 | 0 | 2.0 | 6.0 | 0.00 | 0.24 | 0.22 | 86 | 1025.4 |
| 20260510143725 | 50 | 0 | 3.0 | 6.0 | 0.00 | 0.24 | 0.22 | 86 | 1025.5 |
| 20260510143224 | 50 | 241 | 2.0 | 6.0 | 0.00 | 0.24 | 0.22 | 87 | 1025.5 |
| 20260510142724 | 49 | 0 | 2.0 | 5.0 | 0.00 | 0.24 | 0.22 | 89 | 1025.5 |
| 20260510142456 | 49 | 240 | 2.0 | 5.0 | 0.00 | 0.24 | 0.22 | 90 | 1025.5 |
| 20260510141722 | 48 | 240 | 2.0 | 5.0 | 0.00 | 0.24 | 0.22 | 90 | 1025.5 |
| 20260510141221 | 48 | 0 | 2.0 | 5.0 | 0.00 | 0.24 | 0.22 | 90 | 1025.5 |
| 20260510140951 | 48 | 240 | 3.0 | 5.0 | 0.00 | 0.24 | 0.22 | 91 | 1025.5 |
| 20260510140221 | 47 | 240 | 3.0 | 5.0 | 0.00 | 0.24 | 0.22 | 91 | 1025.6 |
| 20260510135721 | 47 | 241 | 2.0 | 5.0 | 0.00 | 0.24 | 0.22 | 91 | 1025.5 |
| 20260510135218 | 47 | 241 | 3.0 | 5.0 | 0.00 | 0.24 | 0.22 | 91 | 1025.5 |
| 20260510134719 | 47 | 241 | 3.0 | 6.0 | 0.00 | 0.24 | 0.22 | 92 | 1025.6 |
| 20260510134217 | 46 | 0 | 3.0 | 6.0 | 0.00 | 0.24 | 0.22 | 92 | 1025.6 |
| 20260510133947 | 46 | 240 | 4.0 | 7.0 | 0.00 | 0.24 | 0.22 | 92 | 1025.6 |
| 20260510133214 | 46 | 0 | 4.0 | 7.0 | 0.00 | 0.24 | 0.22 | 93 | 1025.5 |
| 20260510132712 | 46 | 0 | 2.0 | 5.0 | 0.00 | 0.24 | 0.22 | 93 | 1025.5 |
| 20260510132444 | 46 | 0 | 2.0 | 5.0 | 0.00 | 0.24 | 0.22 | 93 | 1025.4 |
| 20260510132330 | 45 | 0 | 2.0 | 5.0 | 0.00 | 0.24 | 0.22 | 93 | 1025.4 |
| 20260510131210 | 45 | 0 | 2.0 | 5.0 | 0.00 | 0.24 | 0.22 | 93 | 1025.3 |
| 20260510130710 | 45 | 0 | 3.0 | 5.0 | 0.00 | 0.24 | 0.22 | 93 | 1025.1 |
| 20260510130211 | 45 | 0 | 2.0 | 5.0 | 0.00 | 0.24 | 0.22 | 93 | 1025.3 |
| 20260510125709 | 45 | 0 | 1.0 | 4.0 | 0.00 | 0.24 | 0.22 | 93 | 1025.1 |
| 20260510125210 | 44 | 0 | 1.0 | 3.0 | 0.00 | 0.24 | 0.22 | 93 | 1025.1 |
| 20260510124712 | 44 | 247 | 1.0 | 2.0 | 0.00 | 0.24 | 0.22 | 93 | 1025.1 |
| 20260510124209 | 44 | 0 | 0.0 | 2.0 | 0.00 | 0.24 | 0.22 | 93 | 1025.1 |
| 20260510123707 | 43 | 213 | 0.0 | 2.0 | 0.00 | 0.24 | 0.22 | 92 | 1025.1 |
| 20260510123209 | 43 | 0 | 0.0 | 2.0 | 0.01 | 0.24 | 0.22 | 92 | 1025.1 |
| 20260510122706 | 43 | 0 | 0.0 | 2.0 | 0.01 | 0.24 | 0.22 | 92 | 1025.0 |
| 20260510122206 | 43 | 210 | 0.0 | 2.0 | 0.01 | 0.24 | 0.22 | 92 | 1025.0 |
| 20260510121705 | 43 | 210 | 0.0 | 1.0 | 0.01 | 0.24 | 0.22 | 91 | 1024.9 |
| 20260510121201 | 43 | 210 | 0.0 | 1.0 | 0.01 | 0.24 | 0.22 | 91 | 1024.9 |
| 20260510120702 | 43 | 210 | 0.0 | 0.0 | 0.01 | 0.24 | 0.22 | 91 | 1024.9 |
| 20260510120202 | 43 | 210 | 0.0 | 0.0 | 0.01 | 0.24 | 0.22 | 91 | 1024.9 |
| 20260510115703 | 43 | 210 | 0.0 | 0.0 | 0.01 | 0.24 | 0.22 | 91 | 1025.0 |
| 20260510115200 | 44 | 210 | 0.0 | 2.0 | 0.01 | 0.24 | 0.22 | 91 | 1024.9 |
| 20260510114937 | 44 | 209 | 1.0 | 2.0 | 0.01 | 0.24 | 0.22 | 91 | 1024.8 |
| 20260510114701 | 44 | 210 | 1.0 | 2.0 | 0.01 | 0.24 | 0.22 | 91 | 1024.8 |
| 20260510113659 | 44 | 0 | 0.0 | 2.0 | 0.01 | 0.24 | 0.22 | 91 | 1024.9 |
| 20260510113200 | 44 | 202 | 0.0 | 2.0 | 0.00 | 0.23 | 0.21 | 91 | 1024.9 |
| 20260510112657 | 44 | 199 | 1.0 | 4.0 | 0.00 | 0.23 | 0.21 | 91 | 1024.9 |
| 20260510112157 | 44 | 0 | 2.0 | 4.0 | 0.00 | 0.23 | 0.21 | 91 | 1025.0 |
| 20260510111654 | 44 | 0 | 2.0 | 5.0 | 0.00 | 0.23 | 0.21 | 91 | 1024.9 |
| 20260510111424 | 44 | 0 | 2.0 | 5.0 | 0.00 | 0.23 | 0.21 | 90 | 1024.8 |
| 20260510110655 | 44 | 0 | 2.0 | 4.0 | 0.00 | 0.23 | 0.21 | 90 | 1024.8 |
| 20260510110152 | 44 | 0 | 1.0 | 4.0 | 0.00 | 0.23 | 0.21 | 90 | 1024.8 |
| 20260510105652 | 44 | 0 | 2.0 | 5.0 | 0.00 | 0.23 | 0.21 | 90 | 1024.6 |
| 20260510105151 | 44 | 0 | 4.0 | 8.0 | 0.00 | 0.23 | 0.21 | 90 | 1024.4 |
| 20260510104649 | 44 | 175 | 4.0 | 8.0 | 0.00 | 0.23 | 0.21 | 90 | 1024.3 |
| 20260510104151 | 45 | 0 | 4.0 | 7.0 | 0.00 | 0.23 | 0.21 | 90 | 1024.2 |
| 20260510103919 | 45 | 166 | 4.0 | 7.0 | 0.00 | 0.23 | 0.21 | 90 | 1024.2 |
| 20260510103148 | 45 | 0 | 4.0 | 6.0 | 0.00 | 0.23 | 0.21 | 91 | 1024.3 |
| 20260510102648 | 45 | 159 | 3.0 | 6.0 | 0.00 | 0.23 | 0.21 | 91 | 1024.3 |
| 20260510102309 | 45 | 0 | 0.0 | 2.0 | 0.05 | 0.23 | 0.21 | 90 | 1024.6 |
| 20260510102156 | 45 | 0 | 3.0 | 6.0 | 0.01 | 0.23 | 0.21 | 91 | 1024.4 |
| 20260510101926 | 45 | 150 | 1.0 | 5.0 | 0.03 | 0.23 | 0.21 | 91 | 1024.6 |
| 20260510100648 | 45 | 90 | 0.0 | 0.0 | 0.06 | 0.23 | 0.21 | 90 | 1024.8 |
| 20260510100147 | 45 | 90 | 0.0 | 0.0 | 0.07 | 0.23 | 0.21 | 90 | 1024.8 |
| 20260510095649 | 45 | 90 | 0.0 | 2.0 | 0.09 | 0.23 | 0.21 | 90 | 1024.8 |
| 20260510095419 | 45 | 90 | 0.0 | 2.0 | 0.10 | 0.23 | 0.21 | 90 | 1024.8 |
| 20260510094648 | 46 | 90 | 0.0 | 2.0 | 0.10 | 0.23 | 0.21 | 90 | 1024.7 |
| 20260510094147 | 46 | 90 | 0.0 | 2.0 | 0.10 | 0.23 | 0.21 | 90 | 1024.7 |
| 20260510093648 | 46 | 90 | 1.0 | 3.0 | 0.10 | 0.23 | 0.21 | 90 | 1024.7 |
| 20260510093419 | 46 | 90 | 1.0 | 3.0 | 0.10 | 0.23 | 0.21 | 89 | 1024.7 |
| 20260510092647 | 46 | 90 | 1.0 | 3.0 | 0.10 | 0.23 | 0.21 | 89 | 1024.7 |
| 20260510092147 | 46 | 90 | 1.0 | 3.0 | 0.10 | 0.22 | 0.20 | 89 | 1024.7 |
| 20260510091918 | 46 | 89 | 1.0 | 5.0 | 0.08 | 0.20 | 0.19 | 89 | 1024.7 |
| 20260510091149 | 46 | 90 | 2.0 | 5.0 | 0.06 | 0.18 | 0.17 | 89 | 1024.8 |
| 20260510090647 | 46 | 90 | 1.0 | 3.0 | 0.07 | 0.17 | 0.15 | 89 | 1024.7 |
| 20260510090147 | 46 | 89 | 0.0 | 2.0 | 0.06 | 0.16 | 0.14 | 89 | 1024.7 |
| 20260510085648 | 46 | 90 | 0.0 | 2.0 | 0.06 | 0.14 | 0.12 | 89 | 1024.6 |
| 20260510085148 | 46 | 90 | 1.0 | 3.0 | 0.05 | 0.13 | 0.11 | 89 | 1024.6 |
| 20260510084922 | 47 | 90 | 2.0 | 3.0 | 0.06 | 0.13 | 0.11 | 88 | 1024.4 |
| 20260510084149 | 47 | 90 | 2.0 | 5.0 | 0.06 | 0.13 | 0.11 | 88 | 1024.2 |
| 20260510083645 | 47 | 90 | 1.0 | 5.0 | 0.06 | 0.13 | 0.11 | 89 | 1024.3 |
| 20260510083147 | 47 | 90 | 2.0 | 5.0 | 0.06 | 0.13 | 0.11 | 89 | 1024.2 |
| 20260510082648 | 47 | 91 | 3.0 | 5.0 | 0.06 | 0.13 | 0.11 | 89 | 1024.1 |
| 20260510082146 | 47 | 0 | 2.0 | 4.0 | 0.05 | 0.12 | 0.10 | 89 | 1023.8 |
| 20260510081645 | 47 | 0 | 0.0 | 4.0 | 0.06 | 0.12 | 0.10 | 89 | 1023.6 |
| 20260510081145 | 47 | 0 | 0.0 | 2.0 | 0.07 | 0.12 | 0.10 | 89 | 1023.8 |
| 20260510080648 | 48 | 0 | 1.0 | 5.0 | 0.06 | 0.10 | 0.09 | 90 | 1024.0 |
| 20260510080146 | 48 | 0 | 0.0 | 5.0 | 0.06 | 0.10 | 0.08 | 90 | 1024.0 |
| 20260510075647 | 48 | 0 | 0.0 | 1.0 | 0.05 | 0.08 | 0.07 | 90 | 1023.9 |
| 20260510075417 | 48 | 0 | 0.0 | 0.0 | 0.06 | 0.08 | 0.06 | 90 | 1023.9 |
| 20260510074646 | 48 | 0 | 0.0 | 0.0 | 0.05 | 0.07 | 0.05 | 90 | 1023.9 |
| 20260510074145 | 48 | 0 | 0.0 | 0.0 | 0.05 | 0.07 | 0.05 | 89 | 1023.8 |
| 20260510073647 | 48 | 0 | 0.0 | 0.0 | 0.05 | 0.07 | 0.05 | 89 | 1023.9 |
| 20260510073419 | 48 | 0 | 0.0 | 0.0 | 0.05 | 0.07 | 0.05 | 89 | 1023.9 |
| 20260510072645 | 48 | 0 | 0.0 | 0.0 | 0.05 | 0.07 | 0.05 | 88 | 1023.9 |
| 20260510072147 | 48 | 0 | 2.0 | 6.0 | 0.05 | 0.07 | 0.05 | 88 | 1023.8 |
| 20260510071646 | 48 | 0 | 3.0 | 6.0 | 0.04 | 0.06 | 0.04 | 88 | 1023.6 |
| 20260510071145 | 48 | 0 | 3.0 | 6.0 | 0.03 | 0.05 | 0.04 | 88 | 1023.6 |
| 20260510070646 | 48 | 0 | 3.0 | 7.0 | 0.02 | 0.04 | 0.02 | 87 | 1023.8 |
| 20260510070147 | 48 | 0 | 3.0 | 7.0 | 0.02 | 0.04 | 0.02 | 87 | 1023.9 |
| 20260510065645 | 48 | 0 | 4.0 | 7.0 | 0.01 | 0.03 | 0.01 | 86 | 1024.0 |
| 20260510065147 | 48 | 0 | 3.0 | 7.0 | 0.00 | 0.02 | 0.00 | 86 | 1024.2 |
| 20260510064915 | 48 | 0 | 3.0 | 7.0 | 0.00 | 0.02 | 0.00 | 86 | 1024.2 |
| 20260510064144 | 48 | 0 | 3.0 | 6.0 | 0.00 | 0.02 | 0.00 | 86 | 1024.1 |
| 20260510063643 | 48 | 0 | 2.0 | 5.0 | 0.00 | 0.02 | 0.00 | 86 | 1024.0 |
| 20260510063141 | 48 | 0 | 1.0 | 5.0 | 0.00 | 0.02 | 0.00 | 85 | 1023.8 |
| 20260510062642 | 48 | 0 | 1.0 | 5.0 | 0.00 | 0.02 | 0.00 | 85 | 1023.6 |
| 20260510062138 | 48 | 0 | 2.0 | 5.0 | 0.00 | 0.02 | 0.00 | 85 | 1023.4 |
| 20260510061639 | 48 | 0 | 2.0 | 5.0 | 0.00 | 0.02 | 0.00 | 84 | 1023.4 |
| 20260510061137 | 48 | 0 | 2.0 | 5.0 | 0.00 | 0.02 | 0.00 | 84 | 1023.4 |
| 20260510060635 | 48 | 0 | 1.0 | 5.0 | 0.01 | 0.02 | 0.00 | 84 | 1023.3 |
| 20260510060134 | 48 | 0 | 2.0 | 7.0 | 0.01 | 0.02 | 0.00 | 83 | 1023.2 |
| 20260510055904 | 49 | 0 | 5.0 | 9.0 | 0.01 | 0.02 | 0.02 | 82 | 1023.1 |
| 20260510055130 | 49 | 0 | 5.0 | 10.0 | 0.02 | 0.02 | 0.02 | 81 | 1023.2 |
| 20260510054628 | 49 | 0 | 4.0 | 10.0 | 0.02 | 0.02 | 0.02 | 81 | 1023.3 |
| 20260510054127 | 49 | 0 | 3.0 | 8.0 | 0.02 | 0.02 | 0.02 | 81 | 1023.4 |
| 20260510053626 | 49 | 0 | 3.0 | 6.0 | 0.02 | 0.02 | 0.02 | 80 | 1023.3 |
| 20260510053127 | 49 | 160 | 2.0 | 5.0 | 0.02 | 0.02 | 0.02 | 80 | 1023.3 |
| 20260510052626 | 49 | 0 | 3.0 | 4.0 | 0.02 | 0.02 | 0.02 | 81 | 1023.3 |
| 20260510052355 | 49 | 160 | 3.0 | 5.0 | 0.02 | 0.02 | 0.02 | 80 | 1023.2 |
| 20260510051855 | 49 | 160 | 4.0 | 6.0 | 0.02 | 0.02 | 0.02 | 79 | 1023.2 |
| 20260510051122 | 50 | 0 | 4.0 | 6.0 | 0.02 | 0.02 | 0.02 | 78 | 1023.2 |
| 20260510050853 | 50 | 0 | 3.0 | 6.0 | 0.01 | 0.01 | 0.01 | 77 | 1023.2 |
| 20260510050120 | 50 | 0 | 1.0 | 4.0 | 0.01 | 0.01 | 0.01 | 76 | 1023.2 |
| 20260510045851 | 50 | 333 | 1.0 | 3.0 | 0.01 | 0.01 | 0.01 | 75 | 1023.2 |
| 20260510045118 | 51 | 0 | 2.0 | 3.0 | 0.00 | 0.00 | 0.00 | 73 | 1023.2 |
| 20260510044617 | 51 | 0 | 2.0 | 4.0 | 0.00 | 0.00 | 0.00 | 72 | 1023.2 |
| 20260510044113 | 51 | 331 | 1.0 | 4.0 | 0.00 | 0.00 | 0.00 | 72 | 1023.2 |
| 20260510043615 | 51 | 333 | 0.0 | 3.0 | 0.00 | 0.00 | 0.00 | 69 | 1023.2 |
| 20260510043113 | 51 | 332 | 1.0 | 3.0 | 0.00 | 0.00 | 0.00 | 68 | 1023.1 |
| 20260510042613 | 51 | 333 | 2.0 | 5.0 | 0.00 | 0.00 | 0.00 | 70 | 1023.1 |
| 20260510042111 | 51 | 0 | 3.0 | 5.0 | 0.00 | 0.00 | 0.00 | 69 | 1023.1 |
| 20260510041608 | 50 | 0 | 3.0 | 5.0 | 0.00 | 0.00 | 0.00 | 70 | 1022.9 |
| 20260510041106 | 50 | 0 | 4.0 | 7.0 | 0.00 | 0.00 | 0.00 | 69 | 1022.8 |
| 20260510040607 | 50 | 0 | 5.0 | 9.0 | 0.00 | 0.00 | 0.00 | 68 | 1022.5 |
| 20260510040107 | 50 | 0 | 5.0 | 11.0 | 0.00 | 0.00 | 0.00 | 69 | 1022.4 |
| 20260510035604 | 50 | 0 | 6.0 | 13.0 | 0.00 | 0.00 | 0.00 | 68 | 1022.5 |
| 20260510035105 | 50 | 0 | 6.0 | 13.0 | 0.00 | 0.00 | 0.00 | 68 | 1022.6 |
| 20260510034603 | 51 | 310 | 5.0 | 11.0 | 0.00 | 0.00 | 0.00 | 67 | 1022.6 |
| 20260510034101 | 51 | 0 | 7.0 | 13.0 | 0.00 | 0.00 | 0.00 | 68 | 1022.5 |
| 20260510033601 | 51 | 0 | 8.0 | 18.0 | 0.00 | 0.00 | 0.00 | 68 | 1022.3 |
| 20260510033057 | 51 | 0 | 8.0 | 18.0 | 0.00 | 0.00 | 0.00 | 68 | 1022.1 |
| 20260510032828 | 51 | 334 | 8.0 | 15.0 | 0.00 | 0.00 | 0.00 | 69 | 1022.3 |
| 20260510032056 | 51 | 0 | 8.0 | 12.0 | 0.00 | 0.00 | 0.00 | 69 | 1022.4 |
| 20260510031555 | 51 | 0 | 9.0 | 14.0 | 0.00 | 0.00 | 0.00 | 70 | 1022.3 |
| 20260510031056 | 51 | 0 | 9.0 | 14.0 | 0.00 | 0.00 | 0.00 | 70 | 1022.1 |
| 20260510030556 | 51 | 0 | 9.0 | 14.0 | 0.00 | 0.00 | 0.00 | 70 | 1022.0 |
| 20260510030055 | 51 | 0 | 9.0 | 16.0 | 0.00 | 0.00 | 0.00 | 70 | 1021.8 |
| 20260510025555 | 51 | 0 | 9.0 | 18.0 | 0.00 | 0.00 | 0.00 | 70 | 1021.6 |
| 20260510025053 | 51 | 328 | 9.0 | 18.0 | 0.00 | 0.00 | 0.00 | 69 | 1021.3 |
| 20260510024555 | 51 | 0 | 9.0 | 17.0 | 0.00 | 0.00 | 0.00 | 70 | 1021.0 |
| 20260510024054 | 51 | 0 | 10.0 | 23.0 | 0.00 | 0.00 | 0.00 | 69 | 1020.9 |
| 20260510023555 | 51 | 0 | 10.0 | 23.0 | 0.00 | 0.00 | 0.00 | 69 | 1020.9 |
| 20260510023054 | 51 | 0 | 9.0 | 18.0 | 0.00 | 0.00 | 0.00 | 68 | 1020.9 |
| 20260510022604 | 52 | 0 | 8.0 | 16.0 | 0.00 | 0.00 | 0.00 | 67 | 1020.6 |
| 20260510022553 | 51 | 0 | 8.0 | 14.0 | 0.00 | 0.00 | 0.00 | 68 | 1020.8 |
| 20260510022053 | 52 | 0 | 8.0 | 14.0 | 0.00 | 0.00 | 0.00 | 68 | 1020.6 |
| 20260510021553 | 52 | 0 | 9.0 | 16.0 | 0.00 | 0.00 | 0.00 | 68 | 1020.5 |
| 20260510020551 | 52 | 0 | 8.0 | 13.0 | 0.00 | 0.00 | 0.00 | 67 | 1020.8 |
| 20260510020054 | 52 | 344 | 10.0 | 20.0 | 0.00 | 0.00 | 0.00 | 67 | 1020.4 |
| 20260510015822 | 53 | 0 | 11.0 | 20.0 | 0.00 | 0.00 | 0.00 | 66 | 1019.8 |
| 20260510015051 | 53 | 0 | 10.0 | 19.0 | 0.00 | 0.00 | 0.00 | 66 | 1019.9 |
| 20260510014552 | 53 | 0 | 10.0 | 19.0 | 0.00 | 0.00 | 0.00 | 65 | 1020.1 |
| 20260510014052 | 53 | 0 | 10.0 | 19.0 | 0.00 | 0.00 | 0.00 | 64 | 1019.8 |
| 20260510013553 | 53 | 0 | 10.0 | 19.0 | 0.00 | 0.00 | 0.00 | 63 | 1019.8 |
| 20260510013051 | 54 | 0 | 11.0 | 20.0 | 0.00 | 0.00 | 0.00 | 62 | 1019.6 |
| 20260510012552 | 55 | 0 | 11.0 | 21.0 | 0.00 | 0.00 | 0.00 | 61 | 1019.3 |
| 20260510012052 | 56 | 0 | 10.0 | 21.0 | 0.00 | 0.00 | 0.00 | 63 | 1019.3 |
| 20260510011550 | 56 | 0 | 10.0 | 20.0 | 0.00 | 0.00 | 0.00 | 63 | 1018.7 |
| 20260510011049 | 56 | 0 | 11.0 | 22.0 | 0.00 | 0.00 | 0.00 | 64 | 1019.0 |
| 20260510010549 | 55 | 0 | 12.0 | 22.0 | 0.00 | 0.00 | 0.00 | 66 | 1019.3 |
| 20260510010320 | 55 | 0 | 12.0 | 22.0 | 0.00 | 0.00 | 0.00 | 64 | 1018.9 |
| 20260510005824 | 55 | 0 | 12.0 | 25.0 | 0.00 | 0.00 | 0.00 | 66 | 1018.7 |
| 20260510005711 | 55 | 0 | 12.0 | 25.0 | 0.00 | 0.00 | 0.00 | 66 | 1018.3 |
| 20260510004549 | 55 | 0 | 12.0 | 23.0 | 0.00 | 0.00 | 0.00 | 66 | 1018.1 |
| 20260510004050 | 56 | 0 | 11.0 | 21.0 | 0.00 | 0.00 | 0.00 | 64 | 1017.5 |
| 20260510003550 | 57 | 0 | 12.0 | 26.0 | 0.00 | 0.00 | 0.00 | 63 | 1017.3 |
| 20260510003050 | 56 | 0 | 14.0 | 29.0 | 0.00 | 0.00 | 0.00 | 64 | 1016.7 |
| 20260510002551 | 56 | 0 | 16.0 | 34.0 | 0.00 | 0.00 | 0.00 | 65 | 1016.5 |
| 20260510002050 | 56 | 0 | 16.0 | 34.0 | 0.00 | 0.00 | 0.00 | 63 | 1016.6 |
| 20260510001549 | 56 | 0 | 14.0 | 26.0 | 0.00 | 0.00 | 0.00 | 63 | 1016.7 |
| 20260510001049 | 57 | 0 | 14.0 | 26.0 | 0.00 | 0.00 | 0.00 | 62 | 1016.4 |
| 20260510000821 | 57 | 0 | 14.0 | 24.0 | 0.00 | 0.00 | 0.00 | 61 | 1016.1 |
| 20260510000049 | 58 | 0 | 13.0 | 23.0 | 0.00 | 0.00 | 0.00 | 60 | 1015.9 |
| 20260509235549 | 59 | 0 | 14.0 | 28.0 | 0.00 | 0.00 | 0.00 | 58 | 1015.7 |
| 20260509235054 | 59 | 0 | 15.0 | 28.0 | 0.00 | 0.00 | 0.00 | 56 | 1015.1 |
| 20260509234549 | 60 | 0 | 15.0 | 27.0 | 0.00 | 0.00 | 0.00 | 55 | 1014.9 |
| 20260509234049 | 61 | 0 | 15.0 | 27.0 | 0.00 | 0.00 | 0.00 | 52 | 1014.6 |
| 20260509233551 | 63 | 0 | 16.0 | 30.0 | 0.00 | 0.00 | 0.00 | 50 | 1014.4 |
| 20260509233050 | 65 | 0 | 15.0 | 30.0 | 0.00 | 0.00 | 0.00 | 46 | 1014.2 |
| 20260509232550 | 69 | 0 | 10.0 | 25.0 | 0.00 | 0.00 | 0.00 | 40 | 1014.2 |
| 20260509232048 | 72 | 0 | 7.0 | 12.0 | 0.00 | 0.00 | 0.00 | 32 | 1013.8 |
| 20260509231548 | 72 | 0 | 6.0 | 12.0 | 0.00 | 0.00 | 0.00 | 30 | 1013.4 |
| 20260509231048 | 72 | 0 | 5.0 | 10.0 | 0.00 | 0.00 | 0.00 | 29 | 1013.1 |
| 20260509230545 | 72 | 0 | 5.0 | 9.0 | 0.00 | 0.00 | 0.00 | 30 | 1012.9 |
| 20260509230317 | 71 | 0 | 5.0 | 10.0 | 0.00 | 0.00 | 0.00 | 29 | 1012.9 |
| 20260509225546 | 72 | 0 | 5.0 | 10.0 | 0.00 | 0.00 | 0.00 | 30 | 1012.8 |
| 20260509225045 | 72 | 0 | 6.0 | 11.0 | 0.00 | 0.00 | 0.00 | 29 | 1012.8 |
| 20260509224818 | 72 | 0 | 5.0 | 11.0 | 0.00 | 0.00 | 0.00 | 29 | 1012.7 |
| 20260509224047 | 72 | 0 | 5.0 | 10.0 | 0.00 | 0.00 | 0.00 | 30 | 1012.7 |
| 20260509223546 | 72 | 0 | 7.0 | 12.0 | 0.00 | 0.00 | 0.00 | 31 | 1012.6 |
| 20260509223047 | 72 | 0 | 7.0 | 12.0 | 0.00 | 0.00 | 0.00 | 29 | 1012.6 |
| 20260509222545 | 73 | 0 | 6.0 | 12.0 | 0.00 | 0.00 | 0.00 | 30 | 1012.6 |
| 20260509222044 | 73 | 0 | 6.0 | 12.0 | 0.00 | 0.00 | 0.00 | 30 | 1012.6 |
| 20260509221544 | 72 | 0 | 7.0 | 13.0 | 0.00 | 0.00 | 0.00 | 31 | 1012.6 |
| 20260509221042 | 72 | 0 | 7.0 | 13.0 | 0.00 | 0.00 | 0.00 | 30 | 1012.7 |
| 20260509220543 | 73 | 0 | 6.0 | 13.0 | 0.00 | 0.00 | 0.00 | 31 | 1012.7 |
| 20260509220313 | 73 | 0 | 7.0 | 13.0 | 0.00 | 0.00 | 0.00 | 31 | 1012.7 |